Location: Nashville
(36.1660°N, 86.7840°W)
Time: 21:15:28
(UTC-05:00)

SO-50 - Pass Details

Date: 21 May 2022
Orbit: 586 x 697 km, 64.6° (Epoch: 29 June)

Event Time Altitude Azimuth Distance (km) Brightness Sun altitude
Rises 20:20:13 0° 335° (NNW) 3,078 ? -6.0°
Reaches altitude 10° 20:22:39 10° 342° (NNW) 2,160 ? -6.4°
Maximum altitude 20:27:25 47° 56° (NE) 921 ? -7.2°
Drops below altitude 10° 20:32:07 10° 130° (SE) 2,132 ? -8.0°
Enters shadow 20:32:11 10° 130° (SE) 2,161 ? -8.0°
